Weather History for Marrakech, Morocco

Change the Weather History Date:

Tuesday, July 17, 2012

  Actual Average Record
Temperature  
Mean Temperature 103 °F -  
Max Temperature 121 °F 95 °F 121 °F (2012)
Min Temperature 85 °F 67 °F 64 °F (2004)
Cooling Degree Days 38    
Growing Degree Days 53 (Base 50)    
Moisture  
Dew Point 44 °F    
Average Humidity 14    
Maximum Humidity 23    
Minimum Humidity 4    
Precipitation  
Precipitation 0.00 in 0.00 in - ()
Sea Level Pressure  
Sea Level Pressure 30.04 in    
Wind  
Wind Speed 5 mph ()    
Max Wind Speed 22 mph    
Max Gust Speed 21 mph    
Visibility 4.6 miles    
Events      
Averages and records for this station are not official NWS values.
T = Trace of Precipitation, MM = Missing Value Source: Averaged Metar Reports

Daily Weather History Graph

Daily Weather History Graph

Search for Another Location

Airport:

Trip Planner

Search our weather history database for the weather conditions in past years. The results will help you decide how hot, cold, wet, or windy it might be!

Date:

Astronomy

Jul. 17, 2012 Rise Set
Actual Time 6:38 AM WEST 8:37 PM WEST
Civil Twilight 6:11 AM WEST 9:04 PM WEST
Nautical Twilight 5:38 AM WEST 9:37 PM WEST
Astronomical Twilight 5:03 AM WEST 10:13 PM WEST
Moon 5:03 AM WEST (7/17) 7:18 PM WEST (7/17)
Length of Visible Light 14h 53m
Length of Day
13h 58m
Waning Crescent, 3% of the Moon is Illuminated
Jul 17
Waning Crescent
Jul 19
New
Jul 26
First Quarter
Aug 2
Full
Aug 9
Last Quarter

Hourly Weather History & Observations

Time (WEST) Temp. Dew Point Humidity Pressure Visibility Wind Dir Wind Speed Gust Speed Precip Events Conditions
12:00 AM 100.4 °F 44.6 °F 15% 30.06 in 5.0 mi ESE 9.2 mph - N/A   Scattered Clouds
12:30 AM 96.8 °F 44.6 °F 17% 30.06 in 5.0 mi ESE 4.6 mph - N/A   Scattered Clouds
1:00 AM 97 °F 42 °F 8% 29.95 in 5 mi SE 4.6 mph - -   Partly Cloudy
1:00 AM 96.8 °F 41.0 °F 15% 30.06 in 5.0 mi SE 4.6 mph - N/A   Scattered Clouds
1:30 AM 96.8 °F 41.0 °F 15% 30.06 in 5.6 mi SSE 3.5 mph - N/A   Scattered Clouds
2:00 AM 95.0 °F 42.8 °F 16% 30.06 in 5.6 mi SSE 5.8 mph - N/A   Scattered Clouds
2:30 AM 91.4 °F 42.8 °F 18% 30.06 in 5.6 mi WNW 5.8 mph - N/A   Scattered Clouds
3:00 AM 87.8 °F 44.6 °F 22% 30.06 in 5.0 mi West 4.6 mph - N/A   Scattered Clouds
3:30 AM 87.8 °F 44.6 °F 22% 30.06 in 3.7 mi NE 3.5 mph - N/A   Scattered Clouds
4:00 AM 89 °F 45 °F 13% 29.95 in 4 mi SSW 2.3 mph - -   Partly Cloudy
4:00 AM 87.8 °F 44.6 °F 22% 30.06 in 3.7 mi SSW 1.2 mph - N/A   Scattered Clouds
4:30 AM 89.6 °F 44.6 °F 21% 30.06 in 3.7 mi SSE 3.5 mph - N/A   Scattered Clouds
5:00 AM 87.8 °F 42.8 °F 21% 30.04 in 5.0 mi South 3.5 mph - N/A   Scattered Clouds
5:30 AM 86.0 °F 42.8 °F 22% 30.04 in 5.6 mi ENE 4.6 mph - N/A   Scattered Clouds
6:00 AM 86.0 °F 44.6 °F 23% 30.04 in 5.0 mi Calm Calm - N/A   Partly Cloudy
6:30 AM 86.0 °F 42.8 °F 22% 30.06 in 5.6 mi SSW 3.5 mph - N/A   Partly Cloudy
6:45 AM 85 °F 45 °F 15% 29.97 in 5 mi East 4.6 mph - -   Mostly Cloudy
7:00 AM 86.0 °F 44.6 °F 23% 30.06 in 5.0 mi East 4.6 mph - N/A   Mostly Cloudy
7:30 AM 86.0 °F 44.6 °F 23% 30.06 in 4.3 mi East 2.3 mph - N/A   Mostly Cloudy
8:00 AM 91.4 °F 42.8 °F 18% 30.06 in 4.3 mi SE 3.5 mph - N/A   Mostly Cloudy
8:30 AM 95.0 °F 44.6 °F 18% 30.09 in - East 5.8 mph - N/A   Scattered Clouds
9:00 AM 95.0 °F 44.6 °F 18% 30.06 in 3.7 mi East 6.9 mph - N/A   Scattered Clouds
9:30 AM 100.4 °F 48.2 °F 17% 30.06 in 4.3 mi ESE 4.6 mph - N/A   Scattered Clouds
10:00 AM 105 °F 48 °F 8% 29.94 in 4 mi East 4.6 mph - -   Scattered Clouds
10:00 AM 104.0 °F 48.2 °F 15% 30.06 in 4.3 mi East 3.5 mph - N/A   Scattered Clouds
10:30 AM 107.6 °F 46.4 °F 13% 30.06 in 5.0 mi ENE 5.8 mph - N/A   Scattered Clouds
11:00 AM 109.4 °F 46.4 °F 12% 30.09 in 5.0 mi NE 4.6 mph - N/A   Scattered Clouds
11:30 AM 111.2 °F 46.4 °F 12% 30.06 in 5.0 mi ENE 5.8 mph - N/A   Scattered Clouds
12:00 PM 114.8 °F 46.4 °F 10% 30.06 in 4.3 mi NE 4.6 mph - N/A   Scattered Clouds
12:30 PM 116.6 °F 42.8 °F 9% 30.06 in 5.0 mi NNE 5.8 mph - N/A   Scattered Clouds
12:49 PM 118 °F 41 °F 4% 29.88 in 6 mi ENE 4.6 mph - -   Partly Cloudy
1:00 PM 118.4 °F 41.0 °F 8% 30.06 in 5.6 mi ENE 4.6 mph - N/A   Scattered Clouds
1:30 PM 116.6 °F 41.0 °F 8% 30.04 in 6.2 mi North 5.8 mph - N/A   Scattered Clouds
2:00 PM 118.4 °F 41.0 °F 8% 30.04 in 6.2 mi West 8.1 mph - N/A   Scattered Clouds
2:30 PM 120.2 °F 39.2 °F 7% 30.04 in 6.2 mi Variable 4.6 mph - N/A   Scattered Clouds
3:00 PM 120.2 °F 39.2 °F 7% 30.01 in 5.0 mi WNW 9.2 mph - N/A   Scattered Clouds
3:25 PM 113.0 °F 44.6 °F 10% 30.01 in 2.5 mi SSW 13.8 mph - N/A   Scattered Clouds
3:30 PM 114.8 °F 42.8 °F 9% 30.04 in 3.1 mi Variable 8.1 mph 20.7 mph N/A   Scattered Clouds
4:00 PM 114.8 °F 41.0 °F 8% 30.01 in 1.9 mi SSW 21.9 mph - N/A   Sand
4:30 PM 114.8 °F 44.6 °F 10% 30.01 in - North - - N/A   Sand
5:00 PM 111.2 °F 42.8 °F 10% 30.04 in - North - - N/A   Scattered Clouds
5:30 PM 111.2 °F 44.6 °F 11% 30.04 in - North - - N/A   Scattered Clouds
6:00 PM 111.2 °F 42.8 °F 10% 30.04 in - North - - N/A   Scattered Clouds
6:30 PM 111.2 °F 42.8 °F 10% 30.04 in - North - - N/A   Scattered Clouds
7:00 PM 111 °F 42 °F 5% 29.87 in 3 mi 4.6 mph - -   Mostly Cloudy
7:00 PM 111.2 °F 42.8 °F 10% 30.04 in - North - - N/A   Scattered Clouds
7:40 PM 105.8 °F 48.2 °F 14% 30.04 in - North - - N/A   Sand
8:00 PM 104.0 °F 48.2 °F 15% 30.06 in - North - - N/A   Sand
8:30 PM 105.8 °F 42.8 °F 12% 30.04 in - North - - N/A   Sand
9:00 PM 104.0 °F 46.4 °F 14% 30.06 in 2.5 mi NW 18.4 mph - N/A   Sand
9:30 PM 102.2 °F 46.4 °F 15% 30.06 in - North 13.8 mph - N/A   Sand
9:58 PM 102.2 °F 42.8 °F 13% 30.09 in 3.7 mi NE 6.9 mph - N/A   Scattered Clouds
10:00 PM 102 °F 44 °F 7% 29.95 in 4 mi 3.5 mph - -   Mostly Cloudy
10:00 PM 102.2 °F 42.8 °F 13% 30.09 in 3.7 mi NE 4.6 mph - N/A   Scattered Clouds
10:30 PM 102.2 °F 44.6 °F 14% 30.09 in 3.7 mi NE 4.6 mph - N/A   Scattered Clouds
11:00 PM 102.2 °F 42.8 °F 13% 30.12 in - North - - N/A   Scattered Clouds
11:30 PM 100.4 °F 44.6 °F 15% 30.12 in - North - - N/A   Scattered Clouds